Startseite
Über Mich
AHP4
Galerie
Sehschlangen
Tourenbuch
Bookmarks
Elektronik
Bewertung
Geschichten
[Tagesmessung] [Jahreswerte] [Information]

Messwerte vom 17.04.2022

Die letzten Messwerte von 23:58:47 Uhr:
KategorieMesswert
Temperatur [°C]2
Luftdruck [mBar]1009
Sonneneinstrahlung0
Wind [km/h]0 aus Nordwest
Niederschlag [l/m²]0
rel.Luftfeucht.79.3%
CO2 [ppm]469

Diagramme
Messwerte vom 17.04.2022
Tagesaggregation
KategorieMinimumMaximumSchnittSumme
Temperatur [°C]-3217.4646
Luftdruck [mBar]100910181013.9292
Sonneneinstrahlung247124.8479
Wind [km/h]14
rF [%]27.894.462.72
Niederschlag [l/m²]0
CO2 [ppm]403612485.9
Einordnung alsFrosttag
Vegetationstag

Messungen an benachbarten Tagen: Zur Jahresaggregation 2022
Tabelle aller Messwerte
UhrzeitTemperatur [°C]Luftdruck [mBar]SonneWind [km/h]RichtungRegen [l/m²]rF [%]CO2 [ppm]
00:01:47 3 1017 0 0 O 0 77.3 521
00:04:47 3 1018 0 0 O 0 76.7 518
00:07:45 3 1017 0 0 O 0 76.6 518
00:10:45 3 1017 0 0 O 0 76.2 527
00:13:46 3 1017 0 0 O 0 75.8 530
00:16:47 3 1018 0 0 O 0 76 524
00:19:46 3 1018 0 0 O 0 76.3 525
00:22:46 3 1018 0 0 O 0 76.2 526
00:25:45 3 1017 0 0 O 0 75.8 524
00:28:47 3 1017 0 0 O 0 75.5 521
00:31:48 3 1018 0 0 NW 0 75.8 526
00:34:44 3 1017 0 1 O 0 76.4 533
00:37:46 2 1017 0 0 O 0 77.2 539
00:40:48 3 1017 0 0 O 0 77.6 533
00:43:45 3 1017 0 0 O 0 77.4 536
00:46:45 3 1017 0 0 O 0 76.9 534
00:49:45 2 1017 0 0 O 0 76.4 542
00:52:46 2 1017 0 0 O 0 76.4 534
00:55:46 2 1018 0 0 O 0 77 530
00:58:45 2 1017 0 0 O 0 77.2 534
01:01:45 2 1017 0 0 NO 0 77.2 530
01:04:47 2 1017 0 0 NO 0 77.9 536
01:07:47 2 1017 0 0 NO 0 78.2 533
01:10:46 2 1017 0 0 NO 0 78.4 533
01:13:47 2 1017 0 0 NO 0 78.7 534
01:16:47 1 1017 0 0 NO 0 78.5 538
01:19:45 1 1017 0 0 NO 0 78.8 550
01:22:46 2 1017 0 0 NO 0 79.6 551
01:25:46 2 1017 0 0 NO 0 79.8 553
01:28:45 1 1017 0 0 S 0 79.2 550
01:31:47 1 1017 0 0 S 0 79.4 541
01:34:44 1 1017 0 0 S 0 79.4 548
01:37:45 1 1017 0 0 S 0 79.7 548
01:40:47 1 1017 0 0 S 0 80 556
01:43:45 1 1017 0 0 S 0 80.5 559
01:46:46 1 1017 0 0 S 0 81.5 559
01:49:45 1 1017 0 0 S 0 81.4 553
01:52:44 1 1017 0 0 S 0 81.2 550
01:55:45 0 1017 0 0 S 0 81.4 550
01:58:44 0 1017 0 0 S 0 81.4 552
02:01:46 0 1017 0 0 S 0 81.5 547
02:04:45 0 1017 0 0 S 0 81.6 550
02:07:48 0 1017 0 0 S 0 82 554
02:10:46 0 1017 0 0 S 0 82.4 558
02:13:45 0 1017 0 0 S 0 82.8 563
02:16:46 0 1017 0 0 S 0 83.3 562
02:19:45 0 1017 0 0 S 0 83.2 565
02:22:47 1 1017 0 0 NO 0 84.3 559
02:25:46 1 1017 0 0 NO 0 85 557
02:28:47 1 1017 0 0 NO 0 84.7 552
02:31:47 0 1017 0 0 NO 0 84.5 557
02:34:47 0 1017 0 0 O 0 85.6 563
02:37:47 0 1017 0 0 O 0 85.9 568
02:40:46 0 1017 0 0 O 0 85.4 560
02:43:48 0 1017 0 0 O 0 85 560
02:46:47 0 1017 0 0 O 0 85.1 565
02:49:47 -1 1017 0 0 O 0 85.1 566
02:52:46 -1 1017 0 0 O 0 85.3 565
02:55:45 -1 1017 0 0 O 0 85.4 559
02:58:47 -1 1017 0 0 O 0 86 559
03:01:45 -1 1017 0 0 O 0 86.1 565
03:04:45 -1 1017 0 0 O 0 86.2 565
03:07:47 -1 1017 0 0 O 0 86.6 568
03:10:49 -1 1017 0 0 O 0 86.3 565
03:13:47 -1 1017 0 0 O 0 86.6 565
03:16:45 -1 1017 0 0 O 0 86.6 571
03:19:44 -1 1017 0 1 O 0 86.7 571
03:22:47 -1 1017 0 0 O 0 86.7 565
03:25:51 -1 1017 0 0 O 0 87.1 575
03:28:47 -1 1017 0 0 O 0 87.5 575
03:31:45 -1 1017 0 0 O 0 87.5 577
03:34:46 -1 1017 0 0 O 0 87.8 563
03:37:47 -1 1017 0 0 N 0 88.2 569
03:40:47 -1 1017 0 0 N 0 89.8 564
03:43:46 -1 1017 0 0 N 0 89.4 563
03:46:45 -1 1017 0 0 O 0 89.2 559
03:49:47 -1 1017 0 0 O 0 89.4 563
03:52:45 -1 1017 0 0 O 0 88.8 570
03:55:47 -1 1017 0 0 O 0 88.8 569
03:58:46 -1 1017 0 0 O 0 89.3 572
04:01:45 -1 1017 0 0 O 0 90.5 576
04:04:53 -1 1017 0 0 O 0 91.5 566
04:07:49 -1 1017 0 1 SO 0 92.2 569
04:10:46 -1 1017 0 0 O 0 92.4 565
04:13:46 -1 1017 0 0 O 0 91.7 568
04:16:46 -1 1017 0 0 O 0 91 562
04:19:47 -1 1017 0 0 O 0 90.6 565
04:22:47 -1 1017 0 0 O 0 90.4 567
04:25:46 -1 1017 0 0 O 0 90.1 566
04:28:46 -1 1017 0 0 O 0 90.5 568
04:31:48 -2 1017 0 0 O 0 90.8 569
04:34:47 -2 1017 0 0 O 0 90.3 569
04:37:48 -2 1017 0 0 O 0 90.3 571
04:40:47 -2 1017 0 0 O 0 90.5 578
04:43:46 -2 1017 0 0 O 0 90.7 575
04:46:47 -2 1017 0 0 O 0 90.7 555
04:49:47 -2 1017 0 0 O 0 90.9 550
04:52:46 -3 1017 0 0 O 0 91.1 559
04:55:47 -3 1017 0 0 O 0 91.2 566
04:58:46 -3 1017 0 0 O 0 91.4 571
05:01:45 -3 1017 0 0 O 0 91.4 574
05:04:46 -3 1017 0 0 O 0 91.5 568
05:07:47 -3 1017 0 0 O 0 91.6 563
05:10:47 -3 1017 0 0 O 0 91.6 571
05:13:45 -3 1017 0 0 O 0 91.3 571
05:16:44 -2 1017 0 0 O 0 91.4 577
05:19:46 -3 1017 0 0 O 0 91.2 581
05:22:46 -3 1017 0 0 O 0 90.9 578
05:25:47 -2 1017 0 0 N 0 91.2 572
05:28:46 -2 1017 0 0 N 0 92.4 569
05:31:46 -2 1017 0 0 N 0 92 568
05:34:45 -2 1017 0 0 N 0 91.7 565
05:37:47 -2 1016 0 0 N 0 91.6 566
05:40:47 -2 1017 0 0 N 0 91.3 566
05:43:46 -2 1017 0 0 N 0 91.2 563
05:46:45 -2 1017 0 0 N 0 91 559
05:49:45 -2 1016 3 0 N 0 91.3 564
05:52:47 -3 1017 4 0 SO 0 91.2 568
05:55:47 -3 1016 7 0 SO 0 91.4 572
05:58:47 -3 1017 12 0 SO 0 91.6 577
06:01:49 -3 1016 18 0 SO 0 92 579
06:04:47 -3 1016 25 0 SO 0 92.1 575
06:07:49 -3 1017 35 0 SO 0 92.2 572
06:10:47 -3 1016 45 0 SO 0 92.2 571
06:13:49 -3 1016 57 0 SO 0 92 575
06:16:47 -3 1017 70 0 SO 0 91.9 577
06:19:49 -3 1017 83 0 SO 0 92 586
06:22:47 -3 1017 95 0 SO 0 92.3 595
06:25:49 -2 1016 106 0 SO 0 92.6 600
06:28:47 -2 1017 115 0 NO 0 93.2 585
06:31:47 -2 1017 124 0 N 0 93.9 588
06:34:46 -2 1017 132 0 N 0 94 586
06:37:49 -2 1016 140 0 N 0 93.7 588
06:40:48 -2 1017 146 0 O 0 93.7 583
06:43:48 -2 1016 151 0 O 0 93.9 586
06:46:46 -2 1016 156 0 O 0 94.3 577
06:49:48 -1 1016 160 0 O 0 94.4 574
06:52:45 -1 1017 163 0 O 0 94.3 577
06:55:48 -1 1016 166 0 O 0 93.9 577
06:58:48 -1 1016 169 0 O 0 93.2 573
07:01:45 -1 1017 171 0 O 0 93 568
07:04:48 -1 1016 173 0 O 0 92.2 571
07:07:46 -1 1017 174 0 O 0 92.5 579
07:10:48 1 1017 176 0 O 0 93.2 589
07:13:48 3 1017 177 0 O 0 88.4 580
07:16:30 -1 1017 179 0 O 0 81.4 582
07:19:47 1 1017 180 0 O 0 80.8 577
07:22:49 4 1016 181 0 O 0 79.8 592
07:25:48 3 1017 181 0 O 0 79.1 597
07:28:46 2 1016 182 0 O 0 80.1 600
07:31:45 1 1017 184 0 O 0 81.5 586
07:34:47 1 1017 185 0 O 0 82.4 581
07:37:50 1 1016 185 0 O 0 83.3 578
07:40:46 1 1016 185 0 O 0 83.7 577
07:43:48 0 1017 184 0 O 0 84.2 574
07:46:44 0 1017 184 0 O 0 84.6 574
07:49:46 0 1016 185 0 O 0 84.9 582
07:52:47 1 1016 185 0 O 0 85.5 585
07:55:49 1 1017 186 0 O 0 85.1 594
07:58:48 1 1017 186 0 SO 0 85.2 612
08:01:47 1 1017 187 0 O 0 85.2 536
08:04:46 1 1017 188 0 O 0 85.7 474
08:07:48 1 1016 188 0 NO 0 85.6 515
08:10:50 1 1017 189 2 O 0 86.1 569
08:13:48 2 1017 189 0 O 0 85.6 603
08:16:45 2 1017 188 0 O 0 85.4 605
08:19:48 2 1016 189 0 NO 0 85.3 597
08:22:46 2 1017 189 0 N 0 85.1 592
08:25:49 2 1016 189 0 N 0 85.1 594
08:28:48 2 1017 189 0 SO 0 85.1 605
08:31:50 3 1017 190 1 NW 0 84.7 605
08:34:47 3 1017 191 0 S 0 84.2 607
08:37:49 3 1017 191 1 SO 0 83.2 604
08:40:47 4 1016 192 0 SO 0 81.9 606
08:43:49 4 1017 194 0 SO 0 81.3 603
08:46:47 4 1016 200 1 SO 0 80.9 589
08:49:48 4 1017 205 2 SO 0 80.6 579
08:52:48 4 1017 203 2 S 0 79.8 588
08:55:47 4 1016 199 2 0 79.7 586
08:58:49 5 1017 195 0 SO 0 78.9 582
09:01:50 5 1017 192 1 SO 0 78.9 586
09:04:46 5 1017 191 4 SW 0 78.7 583
09:07:48 5 1016 192 1 SO 0 77.8 580
09:10:47 5 1017 192 3 S 0 76.9 587
09:13:48 5 1016 191 3 S 0 77 585
09:16:48 5 1017 193 1 NO 0 76.3 582
09:19:47 6 1017 194 1 O 0 73.9 569
09:22:48 6 1017 194 3 NO 0 72.6 572
09:25:46 6 1016 193 1 O 0 71.6 570
09:28:48 6 1017 193 0 O 0 69.4 566
09:31:49 6 1016 193 2 S 0 69.6 560
09:34:48 6 1017 193 2 SO 0 69.4 562
09:37:46 6 1017 193 1 NO 0 66.1 562
09:40:48 6 1017 193 1 SO 0 65.7 565
09:43:30 5 1017 194 2 N 0 58.7 565
09:46:46 7 1017 194 3 NO 0 62.5 556
09:49:46 7 1016 194 4 O 0 63.2 553
09:52:50 7 1016 195 5 SW 0 62.2 550
09:55:49 7 1016 197 4 SO 0 61.6 548
09:58:46 7 1017 197 7 O 0 61.2 548
10:01:46 8 1017 198 5 O 0 59.8 547
10:04:48 8 1017 199 6 SO 0 58.4 541
10:07:47 8 1016 198 10 S 0 58.7 536
10:10:49 8 1016 197 2 SO 0 56.8 530
10:13:49 8 1017 199 6 S 0 55.7 533
10:16:47 8 1016 199 1 O 0 53.4 531
10:19:50 8 1016 199 3 NW 0 53.8 521
10:22:48 8 1016 199 3 SO 0 54.4 513
10:25:49 9 1017 200 7 NO 0 55.3 513
10:28:45 9 1017 199 2 N 0 56.3 509
10:31:48 9 1016 200 7 S 0 54.5 516
10:34:49 9 1017 199 3 NO 0 54.5 521
10:37:48 9 1016 199 5 SO 0 55 517
10:40:46 9 1017 199 8 N 0 54.2 509
10:43:46 9 1016 194 4 O 0 53.3 495
10:46:46 9 1016 199 4 O 0 53 495
10:49:46 9 1016 200 4 S 0 53.6 495
10:52:47 9 1016 200 8 SO 0 54.4 496
10:55:47 9 1016 200 4 NO 0 54.4 487
10:58:48 10 1016 200 4 NW 0 52.5 480
11:01:47 10 1016 200 5 S 0 53.6 487
11:04:50 10 1016 201 5 NO 0 52.9 480
11:07:48 10 1016 201 3 SO 0 52.3 483
11:10:50 10 1016 201 5 SO 0 52.4 483
11:13:48 10 1017 201 7 SO 0 52.3 480
11:16:49 10 1016 201 8 O 0 51.4 477
11:19:48 11 1016 201 7 NO 0 50.8 466
11:22:48 11 1015 202 3 O 0 51 468
11:25:52 11 1016 197 10 SO 0 51 466
11:28:47 11 1015 199 2 S 0 50.4 472
11:31:48 11 1015 203 2 SO 0 50.7 465
11:34:47 11 1016 201 9 S 0 51.9 474
11:37:49 11 1015 201 4 S 0 50.4 466
11:40:47 11 1015 203 6 S 0 48.5 465
11:43:47 11 1015 202 4 O 0 46.6 453
11:46:48 11 1015 202 5 NO 0 46 442
11:49:48 11 1016 203 3 O 0 47.2 439
11:52:48 11 1016 204 3 NO 0 45.6 442
11:55:49 11 1015 205 5 NO 0 45.1 436
11:58:46 11 1015 206 9 N 0 44.8 442
12:01:47 11 1014 204 6 S 0 46.4 433
12:04:47 12 1014 204 5 NO 0 45.8 442
12:07:48 12 1014 205 4 NO 0 45.4 436
12:10:50 12 1015 206 5 W 0 46.2 433
12:13:49 13 1014 205 8 SW 0 46.2 428
12:16:47 13 1014 204 5 NO 0 43.1 436
12:19:46 13 1015 207 9 NO 0 42.7 436
12:22:47 13 1014 209 5 SO 0 44 427
12:25:46 13 1015 210 2 O 0 42.7 421
12:28:47 14 1014 212 1 NO 0 43.7 427
12:31:49 14 1014 216 4 NO 0 39.1 433
12:34:46 14 1014 217 5 SO 0 39.1 431
12:37:48 14 1014 218 4 NW 0 45.5 425
12:40:33 13 1014 218 3 SO 0 40 427
12:43:46 15 1014 217 1 SO 0 41.5 424
12:46:47 14 1014 220 4 SW 0 40.2 424
12:49:46 14 1014 223 7 0 42.4 422
12:52:47 15 1014 226 7 O 0 41.9 419
12:55:47 14 1014 228 2 SO 0 40.7 413
12:58:47 15 1013 229 3 SW 0 42 410
13:01:47 15 1014 228 2 0 41.9 415
13:04:47 16 1013 228 8 N 0 42.4 413
13:07:47 17 1014 227 8 S 0 41.7 418
13:10:47 17 1014 227 5 SO 0 40.3 416
13:13:47 17 1014 227 1 SO 0 40.5 418
13:16:32 15 1014 222 7 SO 0 40 415
13:19:45 17 1013 222 11 O 0 38.7 407
13:22:47 17 1014 224 3 S 0 39.2 407
13:25:48 17 1013 225 3 0 39.4 404
13:28:47 17 1013 228 5 SO 0 39.5 407
13:31:48 17 1014 227 5 SO 0 39.7 406
13:34:49 17 1013 227 4 SO 0 40.4 407
13:37:48 17 1013 226 6 NO 0 39.7 407
13:40:48 17 1013 225 1 NO 0 39.5 407
13:43:47 17 1013 224 4 NO 0 39.7 404
13:46:47 17 1013 226 4 S 0 38.2 403
13:49:48 16 1013 227 9 SO 0 38.1 403
13:52:48 17 1014 229 6 SO 0 40.1 405
13:55:48 17 1013 230 5 S 0 38 404
13:58:47 17 1013 230 12 S 0 39.8 403
14:01:48 17 1013 229 3 O 0 38.2 405
14:04:49 17 1013 230 2 NO 0 36 407
14:07:46 16 1013 230 3 0 35.9 403
14:10:48 17 1013 229 11 S 0 39.8 407
14:13:49 17 1013 230 2 NO 0 40.4 404
14:16:48 18 1013 230 5 S 0 39.9 439
14:19:49 18 1013 232 5 SO 0 38.9 436
14:22:48 17 1013 234 6 N 0 34.4 439
14:25:51 16 1013 235 8 S 0 34.9 448
14:28:47 17 1013 237 5 NO 0 37.8 439
14:31:48 18 1013 240 4 NO 0 38.7 439
14:34:46 18 1013 241 5 S 0 37.5 442
14:37:49 18 1013 241 12 SO 0 36.4 440
14:40:48 18 1013 242 7 SO 0 36.7 431
14:43:49 19 1013 242 7 S 0 33.3 434
14:46:49 18 1013 243 2 NW 0 32.6 428
14:49:30 17 1013 243 3 SO 0 40 433
14:52:48 18 1013 243 1 SO 0 36.2 430
14:55:47 19 1013 244 7 SO 0 35.2 433
14:58:46 19 1013 244 4 O 0 34 430
15:01:48 19 1013 244 11 S 0 33.6 439
15:04:47 19 1013 244 4 SO 0 33.3 439
15:07:48 19 1013 244 7 SO 0 34.7 434
15:10:47 19 1013 245 7 SO 0 34.5 430
15:13:48 19 1013 245 7 N 0 30.8 430
15:16:49 18 1013 245 7 S 0 34.8 430
15:19:49 19 1013 245 8 S 0 32.5 430
15:22:48 19 1013 245 3 S 0 32.1 425
15:25:49 20 1013 246 6 SO 0 32.3 427
15:28:33 18 1013 246 4 SO 0 40 427
15:31:49 19 1013 246 1 O 0 28.7 436
15:34:48 18 1013 246 5 O 0 31.6 442
15:37:50 18 1013 246 14 SO 0 32.6 436
15:40:49 18 1013 246 11 SO 0 33.5 424
15:43:48 19 1013 246 7 SW 0 32.7 428
15:46:48 20 1012 246 4 SO 0 32.3 433
15:49:49 19 1013 246 11 SO 0 32.7 430
15:52:49 19 1012 246 4 SO 0 34.8 427
15:55:49 19 1012 247 0 NW 0 32.3 421
15:58:49 18 1012 247 0 NW 0 31.8 418
16:01:47 18 1012 247 0 N 0 31.3 415
16:04:45 18 1012 247 5 O 0 31.4 412
16:07:49 18 1012 247 2 O 0 32 410
16:10:50 17 1012 247 4 SO 0 31.8 410
16:13:46 17 1012 247 2 O 0 34.4 409
16:16:47 17 1012 247 2 SO 0 34.5 405
16:19:48 18 1012 247 5 SO 0 33.1 406
16:22:47 18 1013 247 3 S 0 33.2 406
16:25:49 18 1012 247 3 NO 0 28.5 407
16:28:51 17 1012 247 4 NO 0 29 407
16:31:46 17 1012 247 1 N 0 31.9 418
16:34:48 18 1012 247 5 SO 0 33.5 413
16:37:47 18 1012 247 12 SO 0 34.3 410
16:40:49 19 1011 247 4 SW 0 33 407
16:43:49 19 1012 247 1 SO 0 32.9 407
16:46:47 20 1011 247 7 SW 0 31.9 407
16:49:47 20 1011 247 6 SW 0 30.9 411
16:52:46 21 1011 247 8 S 0 31.9 410
16:55:49 20 1011 247 2 W 0 31.1 408
16:58:50 19 1011 247 6 SO 0 31 404
17:01:49 19 1011 247 2 S 0 29.7 406
17:04:48 19 1011 247 5 SO 0 29.2 403
17:07:47 19 1012 247 6 O 0 30.8 407
17:10:47 19 1011 247 4 SO 0 31 409
17:13:47 20 1011 247 4 S 0 29.9 412
17:16:31 18 1011 247 8 SO 0 40 410
17:19:51 20 1011 247 4 SO 0 28.1 415
17:22:50 20 1011 247 3 SO 0 29 407
17:25:45 20 1011 247 3 O 0 30.1 410
17:28:47 20 1011 247 4 S 0 29.8 407
17:31:48 20 1010 247 10 SW 0 28.5 410
17:34:49 20 1010 247 9 SO 0 27.8 415
17:37:48 20 1010 247 9 O 0 27.9 412
17:40:32 19 1011 247 5 O 0 40 405
17:43:47 20 1011 247 9 O 0 29.9 407
17:46:48 20 1010 247 2 O 0 29.4 404
17:49:49 20 1010 247 1 SO 0 28.8 404
17:52:47 19 1010 247 4 S 0 28.2 410
17:55:47 19 1010 247 1 SW 0 29.4 407
17:58:49 19 1010 247 1 SO 0 29.3 411
18:01:52 19 1010 247 0 SW 0 29.1 416
18:04:48 18 1010 247 4 S 0 29.1 410
18:07:49 19 1010 247 1 SO 0 29.4 407
18:10:49 19 1010 247 3 S 0 29.9 413
18:13:48 19 1010 247 0 SO 0 29.6 413
18:16:47 19 1010 247 2 N 0 30.1 413
18:19:48 18 1010 246 0 O 0 30 412
18:22:46 17 1010 245 3 S 0 30.9 413
18:25:49 17 1010 244 3 S 0 31.8 410
18:28:48 17 1010 243 7 O 0 31.4 404
18:31:46 16 1010 245 1 N 0 30.4 407
18:34:47 15 1010 239 4 O 0 32.1 413
18:37:46 15 1010 236 1 N 0 33.7 407
18:40:50 15 1010 236 2 SO 0 35.5 407
18:43:48 15 1010 240 3 SO 0 36 410
18:46:47 14 1010 241 3 SO 0 36.3 413
18:49:48 14 1010 239 1 SO 0 37.5 418
18:52:47 14 1010 218 0 SO 0 38.5 419
18:55:48 14 1010 235 4 SO 0 39.1 416
18:58:49 14 1010 210 1 SO 0 39.8 416
19:01:48 14 1010 221 0 S 0 40.5 416
19:04:49 13 1010 244 2 SO 0 41 407
19:07:49 13 1010 244 2 N 0 41.3 410
19:10:48 13 1010 242 0 NO 0 41.5 407
19:13:48 13 1010 239 0 O 0 42.4 410
19:16:48 12 1010 233 1 O 0 41.6 413
19:19:47 12 1010 230 0 O 0 41.7 413
19:22:47 12 1010 232 1 O 0 42 410
19:25:49 12 1010 213 0 S 0 41.7 407
19:28:46 12 1010 205 0 O 0 42.2 409
19:31:49 12 1010 191 0 O 0 43.4 407
19:34:47 11 1010 191 0 N 0 43.8 404
19:37:49 11 1010 186 1 SO 0 44.8 404
19:40:47 11 1010 181 2 O 0 45.3 413
19:43:48 11 1010 178 0 O 0 45.6 416
19:46:46 11 1010 175 0 NO 0 46.2 415
19:49:46 11 1010 171 0 N 0 46.5 418
19:52:46 10 1010 167 0 O 0 47.1 419
19:55:48 10 1010 162 2 SO 0 47.7 413
19:58:47 10 1010 157 0 SO 0 48 406
20:01:49 10 1010 150 1 SO 0 48.1 410
20:04:48 10 1009 143 0 SO 0 48.9 413
20:07:48 9 1010 135 0 NO 0 49 421
20:10:49 9 1010 126 0 NO 0 50.1 422
20:13:49 9 1010 116 0 NO 0 50.1 421
20:16:47 9 1010 105 0 NO 0 50 416
20:19:50 9 1009 93 0 NO 0 50.6 413
20:22:48 9 1010 80 0 NO 0 51.1 416
20:25:49 8 1010 67 0 NO 0 51.5 422
20:28:48 8 1010 54 0 NO 0 52 419
20:31:50 8 1010 41 0 NO 0 52.6 422
20:34:48 8 1010 29 0 NO 0 53.6 413
20:37:47 8 1010 20 0 NO 0 55.6 418
20:40:48 8 1010 13 0 NO 0 56.4 415
20:43:47 8 1010 8 0 NO 0 56 414
20:46:46 8 1009 5 0 NO 0 56.6 419
20:49:48 8 1009 3 0 NO 0 57.6 420
20:52:47 7 1009 0 0 NO 0 58.3 419
20:55:52 7 1010 0 0 NO 0 58.1 419
20:58:48 7 1010 0 0 NO 0 59 422
21:01:47 7 1010 0 0 NO 0 59 416
21:04:47 6 1010 0 0 NO 0 61.7 425
21:07:48 6 1009 0 0 NO 0 62.3 425
21:10:47 6 1010 0 0 NO 0 62.6 430
21:13:47 6 1010 0 0 NO 0 64.5 436
21:16:48 6 1010 0 0 NO 0 65.8 437
21:19:44 6 1010 0 0 S 0 65.2 436
21:22:47 6 1010 0 0 S 0 65 431
21:25:46 6 1010 0 0 S 0 64.9 431
21:28:48 6 1010 0 0 S 0 65.3 428
21:31:44 6 1009 0 0 S 0 65.6 424
21:34:45 6 1009 0 0 S 0 66.4 415
21:37:45 6 1009 0 0 S 0 66.1 413
21:40:46 5 1010 0 0 S 0 65.8 415
21:43:45 5 1010 0 0 S 0 66.3 421
21:46:46 5 1010 0 0 S 0 67.1 419
21:49:45 5 1010 0 0 S 0 67.2 413
21:52:46 5 1010 0 0 S 0 67.7 404
21:55:47 5 1009 0 0 N 0 68.6 407
21:58:44 5 1010 0 0 N 0 69.3 413
22:01:47 5 1010 0 0 N 0 68.7 410
22:04:47 5 1010 0 0 N 0 69 416
22:07:46 5 1009 0 0 N 0 68.7 421
22:10:46 5 1010 0 0 N 0 69.2 424
22:13:46 5 1010 0 0 N 0 69.5 421
22:16:47 5 1009 0 0 O 0 69.8 422
22:19:45 4 1010 0 0 O 0 70.1 415
22:22:47 4 1009 0 0 O 0 70.3 416
22:25:47 4 1009 0 0 O 0 70.6 413
22:28:46 4 1009 0 0 O 0 71.1 419
22:31:47 4 1010 0 0 O 0 71.8 422
22:34:46 4 1009 0 0 O 0 72.8 422
22:37:45 4 1009 0 0 O 0 73.5 421
22:40:46 4 1009 0 0 O 0 72.6 418
22:43:45 4 1009 0 0 O 0 73.2 410
22:46:45 4 1010 0 0 O 0 73.5 421
22:49:45 4 1010 0 0 O 0 73.5 424
22:52:46 4 1009 0 0 O 0 74.7 436
22:55:49 4 1009 0 0 O 0 75 430
22:58:46 4 1009 0 0 O 0 74.6 427
23:01:45 4 1009 0 0 O 0 74.8 419
23:04:46 4 1009 0 0 O 0 74.2 418
23:07:49 3 1009 0 0 O 0 73.9 424
23:10:45 3 1009 0 0 O 0 73.8 430
23:13:46 3 1010 0 0 O 0 74.4 425
23:16:47 3 1009 0 0 S 0 75.3 422
23:19:46 3 1009 0 0 S 0 76.5 424
23:22:45 3 1009 0 0 S 0 77.1 427
23:25:46 3 1009 0 0 N 0 76.6 431
23:28:46 3 1009 0 0 N 0 76.9 425
23:31:48 3 1009 0 0 NW 0 78.2 427
23:34:47 4 1009 0 0 NW 0 79.3 434
23:37:46 3 1009 0 0 NW 0 78.6 439
23:40:46 3 1010 0 0 NW 0 77.8 439
23:43:48 3 1009 0 0 NW 0 77.6 439
23:46:45 3 1009 0 0 NW 0 77.1 425
23:49:47 2 1009 12 0 NW 0 77.2 442
23:52:49 2 1009 0 0 NW 0 77.4 451
23:55:46 2 1010 0 0 NW 0 78 471
23:58:47 2 1009 0 0 NW 0 79.3 469

Letzte Änderung : 04-Jan-2022
Copyright Jens Köhler, Wolfsburg, Obere Dorfstraße 10d